TimeMST,TemperatureF,Dew PointF,Humidity,Sea Level PressureIn,VisibilityMPH,Wind Direction,Wind SpeedMPH,Gust SpeedMPH,PrecipitationIn,Events,Conditions,WindDirDegrees,DateUTC
12:55 AM,28.0,26.1,92,30.48,10.0,Calm,Calm,-,N/A,,Overcast,0,2012-11-23 07:55:00
1:55 AM,27.0,25.0,92,30.48,10.0,North,3.5,-,N/A,,Scattered Clouds,350,2012-11-23 08:55:00
2:55 AM,28.0,26.1,92,30.47,10.0,Calm,Calm,-,N/A,,Overcast,0,2012-11-23 09:55:00
3:55 AM,28.9,27.0,92,30.45,10.0,Calm,Calm,-,N/A,,Overcast,0,2012-11-23 10:55:00
4:55 AM,30.0,27.0,88,30.44,10.0,Calm,Calm,-,N/A,,Overcast,0,2012-11-23 11:55:00
5:55 AM,30.9,27.0,85,30.40,10.0,East,3.5,-,N/A,,Mostly Cloudy,90,2012-11-23 12:55:00
6:55 AM,30.0,27.0,88,30.40,10.0,Calm,Calm,-,N/A,,Mostly Cloudy,0,2012-11-23 13:55:00
7:55 AM,30.0,27.0,88,30.40,10.0,Calm,Calm,-,N/A,,Mostly Cloudy,0,2012-11-23 14:55:00
8:55 AM,30.9,26.1,82,30.39,10.0,Calm,Calm,-,N/A,,Scattered Clouds,0,2012-11-23 15:55:00
9:55 AM,32.0,27.0,82,30.39,10.0,Calm,Calm,-,N/A,,Overcast,0,2012-11-23 16:55:00
10:55 AM,33.1,27.0,78,30.37,10.0,Calm,Calm,-,N/A,,Overcast,0,2012-11-23 17:55:00
11:55 AM,34.0,26.1,73,30.34,10.0,Calm,Calm,-,N/A,,Overcast,0,2012-11-23 18:55:00
12:55 PM,35.1,26.1,70,30.30,10.0,NE,3.5,-,N/A,,Overcast,40,2012-11-23 19:55:00
1:55 PM,36.0,26.1,67,30.29,10.0,Calm,Calm,-,N/A,,Overcast,0,2012-11-23 20:55:00
2:55 PM,36.0,26.1,67,30.28,10.0,Calm,Calm,-,N/A,,Overcast,0,2012-11-23 21:55:00
3:55 PM,36.0,26.1,67,30.27,10.0,Calm,Calm,-,N/A,,Overcast,0,2012-11-23 22:55:00
4:55 PM,35.1,27.0,72,30.24,10.0,Calm,Calm,-,N/A,,Overcast,0,2012-11-23 23:55:00
5:55 PM,34.0,28.0,79,30.21,10.0,Calm,Calm,-,N/A,,Overcast,0,2012-11-24 00:55:00
6:55 PM,34.0,28.0,79,30.19,10.0,North,3.5,-,N/A,,Overcast,360,2012-11-24 01:55:00
7:55 PM,34.0,28.9,82,30.16,10.0,Calm,Calm,-,N/A,,Overcast,0,2012-11-24 02:55:00
8:55 PM,34.0,28.0,79,30.17,10.0,East,3.5,-,N/A,,Overcast,100,2012-11-24 03:55:00
9:55 PM,33.1,28.9,85,30.15,9.0,Calm,Calm,-,0.00,Rain,Light Rain,0,2012-11-24 04:55:00
10:55 PM,32.0,30.0,92,30.12,10.0,Calm,Calm,-,0.01,,Overcast,0,2012-11-24 05:55:00
11:09 PM,32.0,30.2,93,30.04,10.0,Calm,Calm,-,0.00,Rain,Light Freezing Rain,0,2012-11-24 06:09:00
11:36 PM,33.8,30.2,87,30.04,10.0,Calm,Calm,-,0.01,Rain,Light Rain,0,2012-11-24 06:36:00
11:55 PM,32.0,30.9,96,30.11,9.0,SSW,3.5,-,0.01,,Overcast,200,2012-11-24 06:55:00